Location: Casco Millpond
(44.5581°N, 87.6111°W)
Time: 08:23:30
(UTC+00:00)

GRACE-FO 1 - Pass Details

Date: 16 January 2026
Orbit: 448 x 460 km, 89.0° (Epoch: 10 February)

Event Time Altitude Azimuth Distance (km) Brightness Sun altitude
Rises 12:37:46 0° 176° (S) 2,446 8.5 -8.1°
Reaches altitude 10° 12:39:48 10° 176° (S) 1,581 7.5 -7.8°
Maximum altitude 12:43:14 83° 89° (E) 463 4.5 -7.2°
Drops below altitude 10° 12:46:42 10° 1° (N) 1,604 7.0 -6.7°
Sets 12:48:46 0° 1° (N) 2,485 7.9 -6.3°
